Погода в Березани

Украина / Киевская область     50°18′26″N   31°29′06″E
темп.,
°C
ветер,
м/с
пор.,
м/с
влажн.,
%
обл.,
%
осадки,
мм/ч
давл.,
гПа
погр.,
м
24 января, пн
пн2423:00−9ссв41195100 0.0 1030253
02:00−9ссв411946 0.0 1031241
05:00−9с6139349 0.0 1032318
08:00−9с6149276 0.0 1032332
11:00−7с6139032 0.0 1032402
14:00−6с7138837 0.0 1031473
17:00−7с61391100 0.0 1031445
20:00−8с5129280 0.0 1031367
25 января, вт
вт2523:00−9с5109367 0.0 1030293
02:00−10с499476 0.0 1030258
05:00−10ссз489455 0.1 1028216
08:00−12ссз379533 0.1 1028166
11:00−9с348822 0.0 1027226
14:00−7сз238566 0.0 1025243
17:00−10ююз1194100 0.0 102310
20:00−10ююз2395100 0.0 102237
26 января, ср
ср2623:00−8ююз2589100 0.0 1020105
02:00−7ю3496100 1.0 1018147
05:00−6ю2497100 0.9 1017137
08:00−6с119791 1.3 101717
11:00−5с479396 0.1 1019360
14:00−4с578995 0.1 1020524
17:00−5с4893100 0.1 1021573
20:00−5сз3691100 0.2 1022279
27 января, чт
чт2723:00−9ссз249572 0.0 102274
02:00−12зсз2299100 0.0 102237
05:00−10юз239697 0.0 102173
08:00−10ююз3594100 0.0 102092
11:00−6ююз478988 0.0 1018235
14:00−4ю5895100 0.3 1016366
17:00−4ю489789 0.3 1014206
20:00−1ююз4898100 0.4 1013238
28 января, пт
пт2823:000ююз51098100 0.3 1011443
02:000юз61298100 0.8 1009604
05:000юз61398100 0.8 1007590
08:00+1зюз61393100 0.9 1007621
11:00+1зюз6139983 0.1 1007604
14:00+1зюз7139056 0.1 1007709
17:00+1зюз71390100 0.1 1006685
20:00+1зюз81497100 0.6 1005857